Weather History for Wharton, TX

Change the Weather History Date:

Tuesday, November 20, 2012

  Actual Average (KPSX) Record (KPSX)
Temperature  
Mean Temperature 64 °F -  
Max Temperature 78 °F 69 °F 85 °F (1979)
Min Temperature 50 °F 50 °F 31 °F (1969)
Degree Days  
Heating Degree Days 1    
Growing Degree Days 14 (Base 50)    
Moisture  
Dew Point 54 °F    
Average Humidity 76    
Maximum Humidity 100    
Minimum Humidity 42    
Precipitation  
Precipitation 0.00 in - - ()
Sea Level Pressure  
Sea Level Pressure 30.19 in    
Wind  
Wind Speed 0 mph (SE)    
Max Wind Speed 8 mph    
Max Gust Speed -    
Visibility 8 miles    
Events Fog    
Averages and records for this station are not official NWS values.
T = Trace of Precipitation, MM = Missing Value Source: NWS Daily Summary

Daily Weather History Graph

Daily Weather History Graph

Search for Another Location

Airport:

Trip Planner

Search our weather history database for the weather conditions in past years. The results will help you decide how hot, cold, wet, or windy it might be!

Date:

Astronomy

Nov. 20, 2012 Rise Set
Actual Time 6:52 AM CST 5:27 PM CST
Civil Twilight 6:27 AM CST 5:53 PM CST
Nautical Twilight 5:58 AM CST 6:21 PM CST
Astronomical Twilight 5:30 AM CST 6:50 PM CST
Moon 12:43 PM CST No Moon Set
Length of Visible Light 11h 25m
Length of Day
10h 34m
First Quarter, 51% of the Moon is Illuminated
Nov 20
First Quarter
Nov 28
Full
Dec 6
Last Quarter
Dec 13
New
Dec 19
First Quarter

Hourly Weather History & Observations

Time (CST) Temp. Dew Point Humidity Pressure Visibility Wind Dir Wind Speed Gust Speed Precip Events Conditions
12:15 AM 53.6 °F 53.6 °F 100% 30.19 in 0.5 mi Calm Calm - N/A Fog Fog
12:35 AM 51.8 °F 51.8 °F 100% 30.19 in 2.0 mi Calm Calm - N/A   Clear
12:55 AM 51.8 °F 51.8 °F 100% 30.18 in 4.0 mi Calm Calm - N/A   Clear
1:15 AM 51.8 °F 51.8 °F 100% 30.19 in 1.0 mi Calm Calm - N/A   Mist
1:35 AM 51.8 °F 51.8 °F 100% 30.18 in 0.5 mi Calm Calm - N/A Fog Fog
1:55 AM 51.8 °F 51.8 °F 100% 30.18 in 0.2 mi Calm Calm - N/A Fog Fog
2:15 AM 51.8 °F 51.8 °F 100% 30.18 in 0.8 mi Calm Calm - N/A   Mist
2:35 AM 51.8 °F 50.0 °F 94% 30.18 in 5.0 mi Calm Calm - N/A   Clear
6:15 AM 50.0 °F 50.0 °F 100% 30.19 in 0.2 mi Calm Calm - N/A Fog Fog
6:35 AM 50.0 °F 50.0 °F 100% 30.19 in 0.2 mi Calm Calm - N/A Fog Fog
6:55 AM 50.0 °F 50.0 °F 100% 30.19 in 0.2 mi Calm Calm - N/A Fog Fog
7:15 AM 50.0 °F 50.0 °F 100% 30.20 in 0.5 mi Calm Calm - N/A Fog Fog
7:35 AM 51.8 °F 50.0 °F 94% 30.21 in 0.5 mi Calm Calm - N/A Fog Fog
7:55 AM 53.6 °F 53.6 °F 100% 30.22 in 1.8 mi Calm Calm - N/A   Mostly Cloudy
8:15 AM 55.4 °F 55.4 °F 100% 30.22 in 3.0 mi Calm Calm - N/A   Clear
8:35 AM 59.0 °F 59.0 °F 100% 30.23 in 7.0 mi Calm Calm - N/A   Clear
8:55 AM 60.8 °F 60.8 °F 100% 30.23 in 10.0 mi Calm Calm - N/A   Clear
9:15 AM 66.2 °F 59.0 °F 78% 30.24 in 10.0 mi Calm Calm - N/A   Clear
9:35 AM 68.0 °F 60.8 °F 78% 30.24 in 10.0 mi Calm Calm - N/A   Clear
9:55 AM 69.8 °F 59.0 °F 68% 30.24 in 10.0 mi Calm Calm - N/A   Clear
10:15 AM 69.8 °F 59.0 °F 68% 30.25 in 10.0 mi Calm Calm - N/A   Scattered Clouds
10:35 AM 71.6 °F 57.2 °F 60% 30.24 in 10.0 mi Calm Calm - N/A   Overcast
10:55 AM 71.6 °F 57.2 °F 60% 30.24 in 10.0 mi Calm Calm - N/A   Overcast
11:15 AM 71.6 °F 55.4 °F 57% 30.23 in 10.0 mi Calm Calm - N/A   Overcast
11:35 AM 71.6 °F 55.4 °F 57% 30.22 in 10.0 mi Calm Calm - N/A   Overcast
11:55 AM 71.6 °F 55.4 °F 57% 30.21 in 10.0 mi Calm Calm - N/A   Overcast
12:15 PM 73.4 °F 53.6 °F 50% 30.20 in 10.0 mi Calm Calm - N/A   Scattered Clouds
12:35 PM 75.2 °F 55.4 °F 50% 30.19 in 10.0 mi Calm Calm - N/A   Scattered Clouds
1:15 PM 75.2 °F 53.6 °F 47% 30.16 in 10.0 mi Calm Calm - N/A   Overcast
1:35 PM 78.8 °F 55.4 °F 44% 30.16 in 10.0 mi Calm Calm - N/A   Overcast
1:55 PM 77.0 °F 53.6 °F 44% 30.15 in 10.0 mi Calm Calm - N/A   Mostly Cloudy
2:15 PM 77.0 °F 53.6 °F 44% 30.14 in 10.0 mi Calm Calm - N/A   Clear
2:35 PM 77.0 °F 55.4 °F 47% 30.14 in 10.0 mi ENE 3.5 mph - N/A   Clear
2:55 PM 78.8 °F 53.6 °F 42% 30.13 in 10.0 mi Calm Calm - N/A   Scattered Clouds
3:15 PM 78.8 °F 55.4 °F 44% 30.13 in 10.0 mi Calm Calm - N/A   Mostly Cloudy
3:35 PM 77.0 °F 55.4 °F 47% 30.13 in 10.0 mi ENE 4.6 mph - N/A   Scattered Clouds
3:55 PM 75.2 °F 55.4 °F 50% 30.13 in 10.0 mi Calm Calm - N/A   Clear
4:15 PM 77.0 °F 55.4 °F 47% 30.14 in 10.0 mi Calm Calm - N/A   Clear
4:35 PM 77.0 °F 55.4 °F 47% 30.14 in 10.0 mi Calm Calm - N/A   Clear
4:55 PM 77.0 °F 55.4 °F 47% 30.14 in 10.0 mi Calm Calm - N/A   Clear
5:15 PM 75.2 °F 55.4 °F 50% 30.14 in 10.0 mi Calm Calm - N/A   Clear
5:35 PM 71.6 °F 55.4 °F 57% 30.15 in 10.0 mi Calm Calm - N/A   Clear
5:55 PM 68.0 °F 55.4 °F 64% 30.15 in 10.0 mi Calm Calm - N/A   Clear
6:15 PM 66.2 °F 53.6 °F 64% 30.16 in 10.0 mi Calm Calm - N/A   Clear
6:35 PM 66.2 °F 53.6 °F 64% 30.16 in 10.0 mi SSE 8.1 mph - N/A   Clear
6:55 PM 64.4 °F 55.4 °F 73% 30.17 in 10.0 mi SSE 3.5 mph - N/A   Clear
7:15 PM 62.6 °F 55.4 °F 77% 30.18 in 10.0 mi Calm Calm - N/A   Clear
7:35 PM 62.6 °F 55.4 °F 77% 30.18 in 10.0 mi SSE 4.6 mph - N/A   Clear
7:55 PM 60.8 °F 55.4 °F 82% 30.19 in 10.0 mi SSE 3.5 mph - N/A   Clear
8:15 PM 60.8 °F 55.4 °F 82% 30.19 in 10.0 mi SE 4.6 mph - N/A   Clear
8:35 PM 59.0 °F 53.6 °F 82% 30.20 in 10.0 mi ESE 5.8 mph - N/A   Clear
8:55 PM 59.0 °F 55.4 °F 88% 30.20 in 10.0 mi ESE 4.6 mph - N/A   Clear
9:15 PM 57.2 °F 53.6 °F 88% 30.21 in 10.0 mi Calm Calm - N/A   Clear
9:35 PM 55.4 °F 53.6 °F 94% 30.21 in 10.0 mi Calm Calm - N/A   Clear
9:55 PM 55.4 °F 53.6 °F 94% 30.22 in 10.0 mi Calm Calm - N/A   Clear
10:15 PM 55.4 °F 51.8 °F 88% 30.22 in 10.0 mi Calm Calm - N/A   Clear
10:35 PM 55.4 °F 53.6 °F 94% 30.21 in 10.0 mi Calm Calm - N/A   Clear
10:55 PM 55.4 °F 53.6 °F 94% 30.21 in 10.0 mi SSE 3.5 mph - N/A   Clear
11:15 PM 55.4 °F 55.4 °F 100% 30.21 in 2.5 mi Calm Calm - N/A   Clear
11:35 PM 55.4 °F 55.4 °F 100% 30.21 in 7.0 mi Calm Calm - N/A   Clear
11:55 PM 55.4 °F 55.4 °F 100% 30.21 in 0.8 mi South 3.5 mph - N/A   Mist